Location: ??????
(30.5519°N, 47.7720°E)
Time: 16:36:59
(UTC+00:00)

COSMOS 2406 - Pass Details

Date: 24 January 2021
Orbit: 841 x 865 km, 71.0° (Epoch: 01 March)

Event Time Altitude Azimuth Distance (km) Brightness Sun altitude
Rises 16:46:18 0° 336° (NNW) 3,447 6.6 -31.8°
Reaches altitude 10° 16:48:47 10° 334° (NNW) 2,505 5.9 -32.3°
Enters shadow 16:52:22 39° 320° (NW) 1,279 4.3 -33.1°
